Regional Weather Roundup
Issued by NWS Wilmington, NC

Home | Current Version | Previous Version | Text Only | Print | Product List | Glossary On
Versions: 1 2 3 4 5 6 7 8 9 10 11 12 13 14 15 16 17 18 19 20 21 22 23 24 25 26 27 28 29 30 31 32 33 34 35 36 37 38 39 40 41 42 43 44 45 46 47 48 49 50
000
ASUS42 KILM 260210
RWRILM
RWRILM
REGIONAL HOURLY WEATHER ROUNDUP
NATIONAL WEATHER SERVICE WILMINGTON NC
900 PM EST SUN JAN 25 2015

NOTE: "FAIR" INDICATES FEW OR NO CLOUDS BELOW 12,000 FEET WITH NO
SIGNIFICANT WEATHER AND/OR OBSTRUCTIONS TO VISIBILITY.

...............WFO WILMINGTON COUNTY WARNING AREA...............

......COASTAL NC AND SC COUNTIES......

CITY           SKY/WX    TMP DP  RH WIND       PRES   REMARKS
WILMINGTON     CLEAR     40  36  86 CALM      29.87F
SOUTHPORT      CLEAR     44  40  87 CALM      29.87F
N MYRTLE BEACH CLEAR     51  44  77 S8        29.85F
MYRTLE BEACH   CLEAR     48  43  81 S6        29.88

......INLAND NC AND SC COUNTIES.......

CITY           SKY/WX    TMP DP  RH WIND       PRES   REMARKS
LUMBERTON      CLEAR     44  36  73 SE6       29.85F
ELIZABETHTOWN  CLEAR     41  34  75 CALM      29.86F
WHITEVILLE     CLEAR     40  36  86 CALM      29.86F
FLORENCE       CLEAR     46  36  68 S8        29.83F
DARLINGTON     CLEAR     46  36  66 S8        29.84S

....................REST OF NORTH CAROLINA......................

.........EASTERN NC.........

CITY           SKY/WX    TMP DP  RH WIND       PRES   REMARKS
CAPE HATTERAS  CLEAR     51  38  60 SW7       29.90S
JACKSONVILLE   CLEAR     37  34  87 CALM      29.88S
MOREHEAD CITY  CLEAR     41  38  89 CALM      29.89F
KENANSVILLE    CLEAR     39  35  86 CALM      29.88F
NEW BERN       CLEAR     38  33  82 CALM      29.89F
ELIZABETH CITY CLEAR     40  34  79 S6        29.91S

.........CENTRAL NC.........

CITY           SKY/WX    TMP DP  RH WIND       PRES   REMARKS
RALEIGH DURHAM PTCLDY    44  32  62 SE3       29.83F
ROCKY MOUNT    CLEAR     42  34  73 S5        29.86F
ROANOKE RAPIDS NOT AVBL
FAYETTEVILLE   CLEAR     44  33  65 S8        29.85S
HOFFMAN        CLEAR     40  35  80 SE6       29.84F

.........WESTERN NC.........

CITY           SKY/WX    TMP DP  RH WIND       PRES   REMARKS
CHARLOTTE      MOCLDY    50  30  46 S7        29.79S
GREENSBORO     MOCLDY    45  33  63 S12       29.78F
HICKORY        NOT AVBL
BOONE          NOT AVBL
ASHEVILLE      NOT AVBL

.....................REST OF SOUTH CAROLINA.....................

.........EASTERN SC.........

CITY           SKY/WX    TMP DP  RH WIND       PRES   REMARKS
CHARLESTON     CLEAR     46  39  76 SW3       29.88S
BEAUFORT MCAS  CLEAR     49  44  83 S6        29.87S
HILTON HEAD    CLEAR     52  46  82 S7        29.90R

.........CENTRAL SC.........

CITY           SKY/WX    TMP DP  RH WIND       PRES   REMARKS
COLUMBIA       CLEAR     43  33  68 W3        29.83R
ORANGEBURG     CLEAR     46  37  71 S5        29.84S
SUMTER SHAW    CLEAR     43  37  78 W2        29.82S

.........WESTERN SC.........

CITY           SKY/WX    TMP DP  RH WIND       PRES   REMARKS
GREENVILLE     NOT AVBL
ROCK HILL      CLOUDY    47  33  58 S6        29.80R
ANDERSON       CLOUDY    50  31  48 S9        29.78S
CLEMSON        NOT AVBL
GREENWOOD      MOCLDY    50  32  50 S12       29.81S


...................COASTAL AND OFFSHORE REPORTS..................

................LOCAL PIERS AND NC RESERVE................


STATION/POSITION TIME  SKY/WX   TEMP    WIND        PRES    VSBY
                                AIR SEA DIR/SP/G
                 (UTC)          (F)     (DEG/KT/KT) (MB)    (MI)
JOHNY MRCER PIER 0200            52 54  170/  7/  8 1011.1S
NC RESRV MASNBRO 0100            48     150/  3     1012.0S
OCEAN CREST PIER 0200            53 54  160/  5/  6 1010.8F
SPRINGMAID  PIER 0200            51 51  210/  8/  9 1011.0F


................COASTAL AND OFFSHORE BUOYS................


STATION/POSITION TIME  SKY/WX   TEMP    WIND        PRES    VSBY
                                AIR SEA DIR/SP/G
                 (UTC)          (F)     (DEG/KT/KT) (MB)    (MI)
DIMNDSHOAL 41025 0200            56 69  210/ 12/ 16 1012.2F
WVE H/P(F/S)=  4/ 9 WND WVE H/P(F/S)=  2/ 2 SWL H/P/D(F/S/D)=  3/120/ 9

CAPE LOOKOUT     0100            51     220/  5/  7 1012.3F
ONSLOW BAY 41036 NOT AVBL
5 WRITEBCH 41038 0100            53 51  170/ 10/ 10 1011.7F
MASONBORO  41110 0200               51                N/A
WVE H/P(F/S)=  2/ 8 WND WVE H/P(F/S)=  2/ 8

WILM HARBR 41108 0200               53                N/A
WVE H/P(F/S)=  3/ 6 WND WVE H/P(F/S)=  3/ 6

27WRITEBCH 41037 NOT AVBL
FRYING PAN 41013 0200            60 67  200/ 17/ 21 1011.9F
WVE H/P(F/S)=  3/ 6 WND WVE H/P(F/S)=  2/ 6 SWL H/P/D(F/S/D)=  2/140/ 8

SUNST NRSH 41024 0100            52     190/  6/  8   N/A
CAPRS NRSH 41029 0100            54     210/ 14/ 19   N/A
EDISTO     41004 0200            61 69  210/ 19/ 23 1011.0F
WVE H/P(F/S)=  4/ 4 WND WVE H/P(F/S)=  3/ 4 SWL H/P/D(F/S/D)=  2/ 8



..........OFFSHORE BUOYS BEYOND 100 NM OFFSHORE...........
.....IN A TRIANGLE---HAT TO BERMUDA TO BAHAMAS TO HAT.....


STATION/POSITION TIME  SKY/WX   TEMP    WIND        PRES    VSBY
                                AIR SEA DIR/SP/G
                 (UTC)          (F)     (DEG/KT/KT) (MB)    (MI)
150E HAT   41001 NOT AVBL
W BERMUDA  41048 0051            67 71  270/  8/ 12 1014.8
WVE H/P(F/S)= 10/10 WND WVE H/P(F/S)=  2/ 4 SWL H/P/D(F/S/D)= 10/290/10

ATLANTIC S 41049 0054            76 75  240/  4/  6 1016.2R
WVE H/P(F/S)=  5/ 6 WND WVE H/P(F/S)=  2/ 4 SWL H/P/D(F/S/D)=  5/210/ 6

E BAHAMAS  41046 0051            78 79  190/ 10/ 12 1016.0
WVE H/P(F/S)=  4/ 9 WND WVE H/P(F/S)=  2/ 4 SWL H/P/D(F/S/D)=  3/ 60/ 9

NE BAHAMAS 41047 0051            72 76   CALM  /  2 1015.5
WVE H/P(F/S)=  7/10 WND WVE H/P(F/S)=  2/ 3 SWL H/P/D(F/S/D)=  7/310/10

120E CANVRL41010 0200            67 75  210/ 10/ 14 1015.1F
WVE H/P(F/S)=  3/ 6 WND WVE H/P(F/S)=  2/ 5 SWL H/P/D(F/S/D)=  3/340/ 6


END


USA.gov is the U.S. government's official web portal to all federal, state and local government web resources and services.